Simultaneous Nadir Overpasses (SNOs) Predictions

Prediction of SNOs between FY3D and TERRA Satellite Orbit:

Table of predicted SNOs for the next 14.0 days since TLE Epoch: 3/11/2023
Index Date (FY3D) Time (FY3D) Lat,Lon (FY3D) SZA (FY3D ) Date (TERRA) Time (TERRA) Lat,Lon (TERRA) SZA (TERRA ) Distance(km) Time Diff (sec)
1 03/13/2023 09:45:46 73.04, 33.36 75.92 03/13/2023 09:46:42 73.02, 33.32 75.89 2.38 56
2 03/13/2023 10:36:29 -72.96,-159.16 104.18 03/13/2023 10:36:07 -72.98,-159.11 104.16 2.62 22
3 03/15/2023 21:49:54 -73.06, 32.32 105.06 03/15/2023 21:51:05 -73.04, 32.23 105.08 3.59 71
4 03/15/2023 22:40:39 72.95,-160.15 74.83 03/15/2023 22:40:27 72.97,-160.24 74.84 3.37 12
5 03/15/2023 23:31:10 -72.27, 8.57 105.89 03/15/2023 23:30:03 -72.35, 6.24 105.79 79.21 67
6 03/18/2023 09:54:08 73.31, 30.74 74.22 03/18/2023 09:55:19 73.23, 31.51 74.12 26.33 71
7 03/18/2023 10:44:47 -73.04,-161.34 106.08 03/18/2023 10:44:47 -73.03,-161.23 106.09 3.50 0
8 03/18/2023 11:35:25 72.58, 6.94 73.44 03/18/2023 11:34:15 72.64, 5.69 73.52 42.30 70
9 03/20/2023 21:58:25 -73.80, 28.58 106.27 03/20/2023 21:59:31 -73.71, 31.40 106.40 88.14 66
10 03/20/2023 22:48:56 73.01,-162.28 72.90 03/20/2023 22:49:05 73.01,-162.38 72.90 3.32 9
11 03/20/2023 23:39:39 -72.93, 5.20 107.20 03/20/2023 23:38:31 -72.92, 5.10 107.21 3.68 68
12 03/23/2023 10:53:04 -73.07,-163.41 108.03 03/23/2023 10:53:24 -73.07,-163.37 108.04 1.46 20
13 03/23/2023 11:43:49 72.97, 4.12 71.85 03/23/2023 11:42:46 72.99, 4.15 71.88 2.74 63



Historial Predications of SNOs between FY3D and TERRA
